Location: Campbell Hill
(37.9301°N, 89.5490°W)
Time: 11:02:46
(UTC+00:00)

Thor Agena Rocket - Pass Details

Date: 07 November 2025
Orbit: 755 x 802 km, 99.1° (Epoch: 07 December)

Event Time Altitude Azimuth Distance (km) Brightness Sun altitude
Rises 23:24:35 0° 174° (S) 3,270 6.9 -6.8°
Reaches altitude 10° 23:26:55 10° 177° (S) 2,351 6.2 -7.2°
Maximum altitude 23:32:04 62° 258° (WSW) 896 4.2 -8.2°
Drops below altitude 10° 23:37:17 10° 339° (NNW) 2,384 6.2 -9.2°
Sets 23:39:40 0° 343° (NNW) 3,320 6.8 -9.7°
